[[{"header":{"parameterUnit":"m.s-1","parameterCategory":1,"la1":30.2992,"la2":30.254,"lo1":-89.0895,"lo2":-89.0443,"dy":0.0025,"dx":0.0025,"nx":19,"ny":19,"refTime":"2026-05-19T09:00:00:Z","depth":0,"parameterNumber":2,"parameterNumberName":"U-component_of_WINDS"},"data":[0,0,0,-3.1909,-3.1911,-3.1971,-3.1971,-3.2064,-3.2065,0,0,0,0,0,0,0,0,0,0,0,-3.1901,-3.1902,-3.1909,-3.1911,-3.1971,-3.1971,-3.2064,-3.2065,0,0,0,0,0,0,0,0,0,0,0,-3.19,-3.1902,-3.1903,-3.1911,-3.1971,-3.1971,-3.2063,-3.2012,0,0,0,0,0,0,0,0,0,0,-3.1952,-3.1952,-3.1901,-3.1903,-3.1912,-3.1971,-3.1971,-3.201,-3.2016,-3.2043,0,-3.207,0,-3.2069,-3.2072,-3.2072,0,0,0,-3.1904,-3.1948,-3.1956,-3.1903,-3.1912,-3.1971,-3.1942,-3.2013,-3.202,-3.2051,-3.2071,-3.2074,-3.207,-3.2073,-3.2073,-3.2254,-3.2255,0,0,-3.1901,-3.1917,-3.1951,-3.196,-3.1952,-3.194,-3.1944,-3.2017,-3.2039,-3.2071,-3.2076,-3.2072,-3.2073,-3.2074,-3.2253,-3.2254,0,0,0,-3.1896,-3.1915,-3.192,-3.1957,-3.1967,-3.1942,-3.1946,-3.2036,-3.2037,-3.2077,-3.2073,-3.2074,-3.2075,-3.2252,-3.2253,-3.2325,0,0,0,-3.1894,-3.1912,-3.1919,-3.1929,-3.1966,-3.2002,-3.1965,-3.2032,-3.2039,-3.2073,-3.2074,-3.2076,-3.225,-3.2253,-3.2321,-3.2356,0,0,0,-3.1894,-3.1911,-3.1923,-3.193,-3.1956,-3.2,-3.2005,-3.2033,-3.2038,-3.2072,-3.2077,-3.2249,-3.2252,-3.2316,-3.2349,-3.2408,0,0,0,-3.1898,-3.1987,-3.1925,-3.2022,-3.1956,-3.2045,-3.2004,-3.207,-3.2108,-3.2074,-3.225,-3.2253,-3.2315,-3.2345,-3.2404,-3.246,-3.2485,0,0,-3.2018,-3.2002,-3.2058,-3.2004,-3.2108,-3.2034,-3.2149,-3.2169,-3.2159,-3.2223,-3.2227,-3.2322,-3.2349,-3.2407,-3.2622,-3.2642,0,0,0,-3.2101,-3.2141,-3.2165,-3.2203,-3.2221,-3.2239,-3.2241,-3.2249,-3.2302,-3.2195,-3.2359,-3.2375,-3.2408,-3.2434,-3.2451,-3.2479,-3.2266,-3.2266,-3.2266,-3.2292,-3.2274,-3.2365,-3.2355,-3.2392,-3.2393,-3.2421,-3.2432,-3.2403,-3.2442,-3.2461,-3.2593,-3.2624,-3.2637,-3.2666,-3.249,-3.249,-3.249,-3.249,-3.2465,-3.2519,-3.2479,-3.2553,-3.2534,-3.2596,-3.2602,-3.2579,-3.2635,-3.2577,-3.2606,-3.2544,-3.2659,-3.2684,-3.2496,-3.2495,-3.2494,-3.2494,-3.2493,-3.2588,-3.261,-3.2619,-3.2671,-3.2714,-3.2701,-3.2756,-3.2737,-3.2719,-3.2747,-3.2765,-3.2763,-3.2759,-3.2757,-3.2758,-3.2758,-3.2759,-3.2759,-3.2759,-3.2711,-3.2718,-3.2766,-3.2794,-3.2816,-3.2842,-3.2845,-3.2866,-3.2885,-3.2866,-3.2866,-3.2833,-3.2674,-3.2634,-3.2766,-3.2765,-3.2764,-3.2763,-3.2763,-3.2892,-3.2848,-3.2923,-3.2945,-3.2976,-3.302,-3.2995,-3.304,-3.3055,-3.3083,-3.3044,-3.293,-3.2911,-3.2898,-3.2864,-3.3048,-3.3048,-3.3048,-3.3048,-3.2994,-3.2984,-3.3056,-3.3092,-3.3126,-3.3111,-3.3198,-3.3202,-3.3199,-3.3207,-3.3178,-3.3132,-3.3119,-3.3108,-3.309,-3.3059,-3.3288,-3.3288,-3.3288,-3.3105,-3.3096,-3.3173,-3.3169,-3.3192,-3.3213,-3.3293,-3.3337,-3.3325,-3.3298,-3.3213,-3.3203,-3.3129,-3.3106,-3.3075,-3.3048,-3.2989,0,0]},{"header":{"parameterUnit":"m.s-1","parameterCategory":1,"la1":30.2992,"la2":30.254,"lo1":-89.0895,"lo2":-89.0443,"dy":0.0025,"dx":0.0025,"nx":19,"ny":19,"refTime":"2026-05-19T09:00:00:Z","depth":0,"parameterNumber":3,"parameterNumberName":"V-component_of_WINDS"},"data":[0,0,0,3.0795,3.0796,3.0828,3.0828,3.0867,3.0868,0,0,0,0,0,0,0,0,0,0,0,3.0785,3.0785,3.0795,3.0796,3.0828,3.0828,3.0867,3.0868,0,0,0,0,0,0,0,0,0,0,0,3.0785,3.0785,3.0786,3.0796,3.0828,3.0828,3.0867,3.0843,0,0,0,0,0,0,0,0,0,0,3.0813,3.0803,3.0785,3.0786,3.0796,3.0828,3.0828,3.0842,3.0845,3.0852,0,3.0859,0,3.0864,3.087,3.087,0,0,0,3.0796,3.08,3.081,3.0786,3.0797,3.0828,3.0814,3.0844,3.0847,3.0856,3.0859,3.0861,3.0865,3.087,3.0871,3.0913,3.0914,0,0,3.0795,3.079,3.0808,3.0812,3.0807,3.0813,3.0815,3.0846,3.0849,3.0859,3.0862,3.0865,3.0871,3.0871,3.0913,3.0913,0,0,0,3.0789,3.0789,3.0798,3.081,3.0816,3.0814,3.0816,3.0848,3.0851,3.0862,3.0866,3.0871,3.0871,3.0913,3.0913,3.0919,0,0,0,3.0788,3.0786,3.0797,3.0794,3.0815,3.0832,3.0817,3.0849,3.0852,3.0865,3.0871,3.0872,3.0913,3.0913,3.0919,3.0923,0,0,0,3.0783,3.0785,3.079,3.0794,3.0808,3.0832,3.0837,3.085,3.0855,3.087,3.0872,3.0913,3.0913,3.0918,3.0922,3.0934,0,0,0,3.0776,3.0793,3.079,3.081,3.0808,3.0836,3.0837,3.0857,3.0872,3.0871,3.0913,3.0913,3.0918,3.0921,3.0933,3.0944,3.0948,0,0,3.0795,3.0796,3.0808,3.0806,3.0834,3.0831,3.0859,3.0876,3.088,3.0902,3.0903,3.0919,3.0922,3.0934,3.0969,3.0972,0,0,0,3.0813,3.0822,3.083,3.0844,3.0858,3.087,3.0883,3.0889,3.0908,3.0891,3.0926,3.0928,3.0935,3.094,3.0943,3.095,3.0915,3.0915,3.0915,3.0833,3.084,3.0861,3.0872,3.0886,3.09,3.0911,3.0922,3.0923,3.0932,3.0938,3.0959,3.0965,3.0967,3.0974,3.0944,3.0944,3.0944,3.0944,3.0863,3.0877,3.088,3.0902,3.0909,3.0928,3.0942,3.0943,3.0961,3.0954,3.0961,3.0953,3.097,3.0977,3.0944,3.0944,3.0944,3.0944,3.0944,3.0878,3.0886,3.0894,3.0916,3.0932,3.0942,3.096,3.0965,3.097,3.0977,3.0985,3.0985,3.0986,3.098,3.098,3.098,3.098,3.098,3.0981,3.089,3.0899,3.0914,3.0932,3.0942,3.0957,3.0972,3.0982,3.0995,3.0997,3.0997,3.0998,3.097,3.0964,3.0982,3.0981,3.0981,3.0981,3.0981,3.0919,3.0913,3.0937,3.0947,3.0969,3.0986,3.0992,3.1013,3.1022,3.1031,3.1031,3.101,3.101,3.1008,3.1002,3.1029,3.1029,3.1029,3.1029,3.0932,3.0933,3.0959,3.0976,3.0993,3.1002,3.1029,3.1041,3.1052,3.1058,3.1055,3.1048,3.1046,3.1047,3.1045,3.104,3.1076,3.1076,3.1076,3.095,3.0954,3.0975,3.0988,3.1005,3.102,3.1046,3.1065,3.1077,3.1078,3.1064,3.1062,3.1051,3.1046,3.1047,3.1042,3.1033,0,0]}]]